User: anonymous   Login
Location: Albany
(42.6526°N, 73.7562°W)
Time: 15:04:04
(UTC+00:00)
Language:

Cosmos 2112 Rocket - Orbit

View from above orbital plane
View from above orbital plane
View from above satellite
View from above satellite

Ground track
Ground track

The orbit data is extracted from the following two-line orbital elements,

1 21015U 90111B   20025.49189892 -.00000007  00000-0  66622-5 0  9995
2 21015  74.0493 190.3150 0022461 222.0493 191.8188 14.35987971622813
Epoch (UTC): 25 January 2020 11:48:20
Eccentricity: 0.0022461
inclination: 74.0493°
perigee height: 756 km
apogee height: 788 km
right ascension of ascending node: 190.3150°
argument of perigee: 222.0493°
revolutions per day: 14.35987971
mean anomaly at epoch: 191.8188°
orbit number at epoch: 62281

The dashed part of the orbit path shows where the satellite is in the earth's shadow,  

DLR